sat.trackr.live / text

‹ back to catalog

STARLINK-34094

NORAD 63822 · 2025-092U

PAYLOAD ACTIVE UNKNOWN

§ Identity

Operator
Country
US
Launch date
2025-05-04
Launch site
AFETR
Launch vehicle
Mass (kg)
RCS (m²)

Purposes: comms

External: N2YO · Heavens-Above · Gunter

§ Orbital elements

Epoch: 2026-09-20T02:20:57.864480Z

Period
94.27 min
Inclination
43.0019°
Eccentricity
0.0001762
Mean motion
15.27584744 rev/d
Perigee alt
481.8 km
Apogee alt
484.2 km
Semi-major
6,861.2 km
B*
4.3681e-4
RAAN
151.4156°
Arg perigee
260.4822°
Mean anomaly
99.5831°
Rev number
7,843

§ Raw data

STARLINK-340941 63822U 25092U   26263.09789195  .00011779  00000+0  43681-3 0  99952 63822  43.0019 151.4156 0001762 260.4822  99.5831 15.27584744 78437

JSON: /api/v1/satellites/63822 · /tle

For live sub-satellite position, see the globe view (requires WebGL).

§ Visibility from observer

Set your observer location to see the next 7 days of passes ≥ 10°. The values pass through the URL so the page stays shareable.

No JS? Fill the form by hand. The geolocation button needs JavaScript.